CW3508 Weather Reports


Display with metric or nautical units.
time (UTC)temp
F
wind
direction
speed
MPH
gust
MPH
rain 1hr
in
rain 24hr
in
rain mn
in
humidity
%
barometer
mb
20260905222519 92 175 0.0 4.0 0.00 0.00 0.00 70 1007.6
20260905222034 92 119 0.0 0.0 0.00 0.00 0.00 70 1007.6
20260905221535 92 118 0.0 1.0 0.00 0.00 0.00 70 1007.6
20260905221056 92 144 0.0 1.0 0.00 0.00 0.00 69 1007.5
20260905220521 93 155 0.0 1.0 0.00 0.00 0.00 69 1007.5
20260905220054 93 154 0.0 6.0 0.00 0.00 0.00 68 1007.5
20260905215544 93 189 0.0 6.0 0.00 0.00 0.00 67 1007.2
20260905215043 94 167 0.0 6.0 0.00 0.00 0.00 66 1007.2
20260905214533 95 142 0.0 1.0 0.00 0.00 0.00 65 1007.2
20260905214021 95 161 0.0 6.0 0.00 0.00 0.00 63 1007.4
20260905213522 95 167 0.0 4.0 0.00 0.00 0.00 62 1007.4
20260905213024 96 167 1.0 4.0 0.00 0.00 0.00 61 1007.4
20260905212523 96 200 0.0 1.0 0.00 0.00 0.00 60 1007.6
20260905212033 96 200 0.0 2.0 0.00 0.00 0.00 60 1007.6
20260905211029 96 192 0.0 0.0 0.00 0.00 0.00 58 1007.6
20260905210535 96 223 0.0 3.0 0.00 0.00 0.00 58 1007.6
20260905210029 96 158 1.0 6.0 0.00 0.00 0.00 58 1007.6
20260905205541 96 175 3.0 6.0 0.00 0.00 0.00 58 1007.6
20260905205041 96 187 0.0 1.0 0.00 0.00 0.00 59 1007.6
20260905204544 96 161 0.0 3.0 0.00 0.00 0.00 58 1007.6
20260905204032 96 161 0.0 3.0 0.00 0.00 0.00 59 1007.7
20260905203520 96 142 0.0 0.0 0.00 0.00 0.00 60 1007.7
20260905203027 96 144 0.0 0.0 0.00 0.00 0.00 62 1007.7
20260905202529 96 132 0.0 0.0 0.00 0.00 0.00 61 1007.8
20260905202021 97 132 0.0 0.0 0.00 0.00 0.00 61 1007.8
20260905201600 97 132 0.0 0.0 0.00 0.00 0.00 59 1007.8
20260905201040 97 224 0.0 0.0 0.00 0.00 0.00 59 1007.9
20260905200529 97 205 0.0 4.0 0.00 0.00 0.00 61 1007.9
20260905200029 97 215 0.0 6.0 0.00 0.00 0.00 59 1007.9
20260905195602 98 159 1.0 6.0 0.00 0.00 0.00 57 1008.1
20260905195045 98 133 0.0 1.0 0.00 0.00 0.00 56 1008.1
20260905194539 98 199 0.0 1.0 0.00 0.00 0.00 51 1008.1
20260905194042 98 197 0.0 1.0 0.00 0.00 0.00 53 1008.2
20260905193529 98 197 0.0 1.0 0.00 0.00 0.00 53 1008.2
20260905193014 98 168 0.0 1.0 0.00 0.00 0.00 53 1008.2
20260905192550 98 169 0.0 3.0 0.00 0.00 0.00 53 1008.6
20260905192030 98 132 0.0 3.0 0.00 0.00 0.00 52 1008.6
20260905191518 98 261 0.0 2.0 0.00 0.00 0.00 54 1008.6
20260905191025 98 177 0.0 1.0 0.00 0.00 0.00 53 1008.7
20260905190536 98 178 0.0 0.0 0.00 0.00 0.00 54 1008.7
20260905190020 98 177 0.0 0.0 0.00 0.00 0.00 54 1008.7
20260905185518 99 177 0.0 1.0 0.00 0.00 0.00 53 1008.9
20260905185044 99 177 0.0 1.0 0.00 0.00 0.00 52 1008.9
20260905184525 99 181 0.0 1.0 0.00 0.00 0.00 52 1008.9
20260905184021 100 181 0.0 1.0 0.00 0.00 0.00 51 1009.2
20260905183514 100 181 0.0 1.0 0.00 0.00 0.00 53 1009.2
20260905183014 101 181 0.0 1.0 0.00 0.00 0.00 51 1009.2
20260905182029 101 180 0.0 0.0 0.00 0.00 0.00 50 1009.5
20260905181535 101 180 0.0 0.0 0.00 0.00 0.00 50 1009.5
20260905181017 101 166 0.0 1.0 0.00 0.00 0.00 48 1009.7
20260905180520 101 165 0.0 1.0 0.00 0.00 0.00 49 1009.7
20260905180019 101 165 0.0 1.0 0.00 0.00 0.00 48 1009.7
20260905175518 102 115 0.0 1.0 0.00 0.00 0.00 49 1009.8
20260905175014 102 250 0.0 1.0 0.00 0.00 0.00 51 1009.8
20260905174525 101 232 0.0 1.0 0.00 0.00 0.00 52 1009.8
20260905174035 100 228 0.0 0.0 0.00 0.00 0.00 49 1010.1
20260905173543 100 290 0.0 0.0 0.00 0.00 0.00 52 1010.1
20260905173029 100 192 0.0 3.0 0.00 0.00 0.00 52 1010.1
20260905172535 99 281 0.0 3.0 0.00 0.00 0.00 56 1010.2
20260905172016 99 198 1.0 2.0 0.00 0.00 0.00 54 1010.2
20260905171531 99 253 0.0 2.0 0.00 0.00 0.00 54 1010.2
20260905171016 99 340 0.0 1.0 0.00 0.00 0.00 55 1010.4
20260905170524 98 269 0.0 1.0 0.00 0.00 0.00 56 1010.4
20260905170031 98 215 0.0 1.0 0.00 0.00 0.00 58 1010.4
20260905165546 98 212 0.0 1.0 0.00 0.00 0.00 57 1010.7
20260905165028 98 212 0.0 1.0 0.00 0.00 0.00 57 1010.7
20260905164533 99 245 0.0 1.0 0.00 0.00 0.00 57 1010.7
20260905164020 98 158 0.0 1.0 0.00 0.00 0.00 58 1010.8
20260905163525 98 317 0.0 1.0 0.00 0.00 0.00 58 1010.8
20260905163057 97 182 0.0 1.0 0.00 0.00 0.00 59 1010.8
20260905162524 96 183 0.0 0.0 0.00 0.00 0.00 60 1010.8
20260905162027 96 183 0.0 2.0 0.00 0.00 0.00 61 1010.8
20260905161538 95 183 0.0 2.0 0.00 0.00 0.00 63 1010.8
20260905161041 94 183 0.0 0.0 0.00 0.00 0.00 63 1011.0
20260905160539 94 164 0.0 0.0 0.00 0.00 0.00 62 1011.0
20260905160042 94 164 0.0 0.0 0.00 0.00 0.00 67 1011.0
20260905155524 93 301 0.0 0.0 0.00 0.00 0.00 67 1010.8
20260905155024 92 301 0.0 0.0 0.00 0.00 0.00 69 1010.8
20260905154527 91 180 0.0 0.0 0.00 0.00 0.00 70 1010.8
20260905154053 90 180 0.0 0.0 0.00 0.00 0.00 73 1010.8
20260905153534 89 180 0.0 1.0 0.00 0.00 0.00 73 1010.8
20260905153021 89 180 0.0 1.0 0.00 0.00 0.00 73 1010.8
20260905152522 88 180 0.0 0.0 0.00 0.00 0.00 77 1010.8
20260905152052 87 180 0.0 1.0 0.00 0.00 0.00 77 1010.8
20260905151521 86 180 0.0 1.0 0.00 0.00 0.00 77 1010.8
20260905151053 86 256 0.0 0.0 0.00 0.00 0.00 82 1010.9
20260905150535 85 256 0.0 0.0 0.00 0.00 0.00 83 1010.9
20260905145555 85 256 0.0 0.0 0.00 0.00 0.00 83 1011.0
20260905145038 84 256 0.0 0.0 0.00 0.00 0.00 85 1011.0
20260905144537 84 256 0.0 0.0 0.00 0.00 0.00 86 1011.0
20260905144023 83 256 0.0 0.0 0.00 0.00 0.00 86 1011.2
20260905143532 83 256 0.0 0.0 0.00 0.00 0.00 85 1011.2
20260905143041 82 256 0.0 0.0 0.00 0.00 0.00 87 1011.2
20260905142602 82 256 0.0 1.0 0.00 0.00 0.00 88 1011.3
20260905142042 81 256 0.0 1.0 0.00 0.00 0.00 89 1011.3
20260905141542 81 256 0.0 0.0 0.00 0.00 0.00 89 1011.3
20260905141053 80 256 0.0 0.0 0.00 0.00 0.00 91 1011.3
20260905140038 80 256 0.0 0.0 0.00 0.00 0.00 92 1011.3
20260905135539 79 256 0.0 0.0 0.00 0.00 0.00 92 1011.3
20260905135039 79 256 0.0 0.0 0.00 0.00 0.00 93 1011.3
20260905134531 79 256 0.0 0.0 0.00 0.00 0.00 93 1011.3
20260905134041 78 256 0.0 0.0 0.00 0.00 0.00 93 1011.3
20260905133542 78 256 0.0 0.0 0.00 0.00 0.00 94 1011.3
20260905133030 78 256 0.0 0.0 0.00 0.00 0.00 94 1011.3
20260905132535 78 256 0.0 0.0 0.00 0.00 0.00 94 1011.3
20260905132021 77 256 0.0 0.0 0.00 0.00 0.00 94 1011.3
20260905131527 77 256 0.0 0.0 0.00 0.00 0.00 94 1011.3
20260905131018 77 256 0.0 0.0 0.00 0.00 0.00 94 1011.5
20260905130555 76 256 0.0 0.0 0.00 0.00 0.00 94 1011.5
20260905130034 76 256 0.0 0.0 0.00 0.00 0.00 94 1011.5
20260905125523 76 256 0.0 0.0 0.00 0.00 0.00 94 1011.4
20260905125022 76 256 0.0 0.0 0.00 0.00 0.00 94 1011.4
20260905124541 76 256 0.0 0.0 0.00 0.00 0.00 94 1011.4
20260905123532 75 256 0.0 0.0 0.00 0.00 0.00 94 1011.5
20260905123035 75 256 0.0 0.0 0.00 0.00 0.00 94 1011.5
20260905122532 75 256 0.0 0.0 0.00 0.00 0.00 94 1011.3
20260905122017 75 256 0.0 0.0 0.00 0.00 0.00 94 1011.3
20260905121524 75 256 0.0 0.0 0.00 0.00 0.00 94 1011.3
20260905121028 75 256 0.0 0.0 0.00 0.00 0.00 94 1011.3
20260905120519 75 256 0.0 0.0 0.00 0.00 0.00 93 1011.3
20260905120016 75 256 0.0 0.0 0.00 0.00 0.00 93 1011.3
20260905115512 75 256 0.0 0.0 0.00 0.00 0.00 93 1011.2
20260905115030 75 256 0.0 0.0 0.00 0.00 0.00 93 1011.2
20260905114547 75 256 0.0 0.0 0.00 0.00 0.00 93 1011.2
20260905114029 75 256 0.0 0.0 0.00 0.00 0.00 93 1011.1
20260905113533 75 256 0.0 0.0 0.00 0.00 0.00 93 1011.1
20260905113019 75 256 0.0 0.0 0.00 0.00 0.00 93 1011.1
20260905112528 75 256 0.0 0.0 0.00 0.00 0.00 93 1011.0
20260905112034 75 256 0.0 0.0 0.00 0.00 0.00 93 1011.0
20260905111523 75 256 0.0 0.0 0.00 0.00 0.00 93 1011.0
20260905111034 75 256 0.0 0.0 0.00 0.00 0.00 93 1010.9
20260905110556 75 256 0.0 0.0 0.00 0.00 0.00 92 1010.9
20260905110041 75 256 0.0 0.0 0.00 0.00 0.00 92 1010.9
20260905105526 75 256 0.0 0.0 0.00 0.00 0.00 92 1010.8
20260905105033 75 256 0.0 0.0 0.00 0.00 0.00 92 1010.8
20260905104515 75 256 0.0 0.0 0.00 0.00 0.00 92 1010.8
20260905104025 75 256 0.0 0.0 0.00 0.00 0.00 92 1010.8
20260905103528 76 256 0.0 0.0 0.00 0.00 0.00 92 1010.8
20260905103031 76 256 0.0 0.0 0.00 0.00 0.00 92 1010.8
20260905102539 76 256 0.0 0.0 0.00 0.00 0.00 92 1010.8
20260905102032 76 256 0.0 0.0 0.00 0.00 0.00 92 1010.8
20260905101534 76 256 0.0 0.0 0.00 0.00 0.00 92 1010.8
20260905101035 76 256 0.0 0.0 0.00 0.00 0.00 92 1010.8
20260905100529 76 256 0.0 0.0 0.00 0.00 0.00 92 1010.8
20260905100016 76 256 0.0 0.0 0.00 0.00 0.00 91 1010.8
20260905095523 76 256 0.0 0.0 0.00 0.00 0.00 91 1010.7
20260905094525 76 256 0.0 0.0 0.00 0.00 0.00 91 1010.7
20260905094053 76 256 0.0 0.0 0.00 0.00 0.00 91 1010.7
20260905093536 76 256 0.0 0.0 0.00 0.00 0.00 91 1010.7
20260905093032 76 256 0.0 0.0 0.00 0.00 0.00 91 1010.7
20260905092518 76 256 0.0 0.0 0.00 0.00 0.00 91 1010.7
20260905092048 76 256 0.0 0.0 0.00 0.00 0.00 91 1010.7
20260905091520 76 256 0.0 0.0 0.00 0.00 0.00 90 1010.7
20260905091054 76 256 0.0 0.0 0.00 0.00 0.00 90 1010.8
20260905090521 76 256 0.0 0.0 0.00 0.00 0.00 90 1010.8
20260905090014 76 256 0.0 0.0 0.00 0.00 0.00 90 1010.8
20260905085534 76 256 0.0 0.0 0.00 0.00 0.00 90 1010.7
20260905085034 77 256 0.0 0.0 0.00 0.00 0.00 90 1010.7
20260905084541 77 256 0.0 0.0 0.00 0.00 0.00 90 1010.7
20260905084030 77 256 0.0 0.0 0.00 0.00 0.00 89 1010.6
20260905083515 77 256 0.0 0.0 0.00 0.00 0.00 89 1010.6
20260905083015 77 256 0.0 0.0 0.00 0.00 0.00 89 1010.6
20260905082530 77 256 0.0 0.0 0.00 0.00 0.00 89 1010.4
20260905082043 77 256 0.0 0.0 0.00 0.00 0.00 89 1010.4
20260905081529 77 256 0.0 0.0 0.00 0.00 0.00 89 1010.4
20260905081020 77 256 0.0 0.0 0.00 0.00 0.00 89 1010.3
20260905080535 77 256 0.0 0.0 0.00 0.00 0.00 89 1010.3
20260905080023 77 256 0.0 0.0 0.00 0.00 0.00 89 1010.3
20260905075526 77 256 0.0 0.0 0.00 0.00 0.00 88 1010.3
20260905075020 77 256 0.0 0.0 0.00 0.00 0.00 88 1010.3
20260905074519 77 256 0.0 0.0 0.00 0.00 0.00 88 1010.3
20260905074021 77 256 0.0 0.0 0.00 0.00 0.00 88 1010.2
20260905073032 77 256 0.0 0.0 0.00 0.00 0.00 88 1010.2
20260905072539 77 256 0.0 0.0 0.00 0.00 0.00 88 1010.2
20260905072028 77 256 0.0 0.0 0.00 0.00 0.00 88 1010.2
20260905071515 78 256 0.0 0.0 0.00 0.00 0.00 88 1010.2
20260905071046 78 256 0.0 1.0 0.00 0.00 0.00 87 1010.2
20260905070530 78 256 0.0 1.0 0.00 0.00 0.00 87 1010.2
20260905065521 78 256 0.0 0.0 0.00 0.00 0.00 87 1010.2
20260905065022 78 256 0.0 0.0 0.00 0.00 0.00 87 1010.2
20260905064535 78 256 0.0 0.0 0.00 0.00 0.00 87 1010.2
20260905064027 78 256 0.0 0.0 0.00 0.00 0.00 87 1010.3
20260905063604 78 256 0.0 0.0 0.00 0.00 0.00 87 1010.3
20260905063046 78 256 0.0 0.0 0.00 0.00 0.00 87 1010.3
20260905062540 78 256 0.0 0.0 0.00 0.00 0.00 86 1010.3
20260905062041 78 256 0.0 0.0 0.00 0.00 0.00 86 1010.3
20260905061520 79 256 0.0 0.0 0.00 0.00 0.00 86 1010.3
20260905061051 79 256 0.0 0.0 0.00 0.00 0.00 85 1010.5
20260905060520 79 256 0.0 0.0 0.00 0.00 0.00 86 1010.5
20260905060020 79 256 0.0 0.0 0.00 0.00 0.00 86 1010.5
20260905055530 79 256 0.0 0.0 0.00 0.00 0.00 86 1010.3
20260905055018 79 256 0.0 0.0 0.00 0.00 0.00 85 1010.3
20260905054548 79 256 0.0 0.0 0.00 0.00 0.00 85 1010.3
20260905054028 79 256 0.0 0.0 0.00 0.00 0.00 85 1010.3
20260905053522 79 256 0.0 0.0 0.00 0.00 0.00 85 1010.3
20260905053034 79 256 0.0 0.0 0.00 0.00 0.00 85 1010.3
20260905052523 79 256 0.0 0.0 0.00 0.00 0.00 85 1010.5
20260905052054 79 256 0.0 0.0 0.00 0.00 0.00 84 1010.5
20260905051518 79 256 0.0 0.0 0.00 0.00 0.00 85 1010.5
20260905051023 80 256 0.0 0.0 0.00 0.00 0.00 85 1010.4
20260905050524 80 256 0.0 0.0 0.00 0.00 0.00 85 1010.4
20260905050034 80 256 0.0 0.0 0.00 0.00 0.00 85 1010.4
20260905045529 80 256 0.0 0.0 0.00 0.00 0.00 85 1010.6
20260905045029 80 256 0.0 0.0 0.00 0.00 0.00 85 1010.6
20260905044534 80 256 0.0 0.0 0.00 0.00 0.00 85 1010.6
20260905044024 80 256 0.0 0.0 0.00 0.00 0.00 85 1010.7
20260905043525 80 256 0.0 0.0 0.00 0.00 0.00 85 1010.7
20260905043016 80 256 0.0 0.0 0.00 0.00 0.00 84 1010.7
20260905042534 80 256 0.0 0.0 0.00 0.00 0.00 84 1010.5
20260905042039 81 256 0.0 0.0 0.00 0.00 0.00 83 1010.5
20260905041542 81 256 0.0 0.0 0.00 0.00 0.00 83 1010.5
20260905041030 81 256 0.0 0.0 0.00 0.00 0.00 83 1010.6
20260905040524 81 256 0.0 0.0 0.00 0.00 0.00 83 1010.6
20260905040028 81 256 0.0 0.0 0.00 0.00 0.00 83 1010.6
20260905035522 81 256 0.0 0.0 0.00 0.00 0.00 83 1010.7
20260905035040 81 256 0.0 0.0 0.00 0.00 0.00 82 1010.7
20260905034518 82 256 0.0 0.0 0.00 0.00 0.00 81 1010.7
20260905034057 82 256 0.0 0.0 0.00 0.00 0.00 81 1010.6
20260905033525 82 256 0.0 0.0 0.00 0.00 0.00 80 1010.6
20260905033025 82 256 0.0 0.0 0.00 0.00 0.00 80 1010.6
20260905032536 82 256 0.0 0.0 0.00 0.00 0.00 80 1010.7
20260905032040 82 256 0.0 0.0 0.00 0.00 0.00 80 1010.7
20260905031539 82 256 0.0 0.0 0.00 0.00 0.00 80 1010.7
20260905031047 83 256 0.0 0.0 0.00 0.00 0.00 79 1010.8
20260905030533 83 256 0.0 0.0 0.00 0.00 0.00 79 1010.8
20260905030024 83 256 0.0 0.0 0.00 0.00 0.00 79 1010.8
20260905025513 83 256 0.0 0.0 0.00 0.00 0.00 79 1011.1
20260905025029 83 256 0.0 0.0 0.00 0.00 0.00 79 1011.1
20260905024024 83 256 0.0 0.0 0.00 0.00 0.00 78 1011.0
20260905023532 84 256 0.0 0.0 0.00 0.00 0.00 77 1011.0
20260905023031 84 256 0.0 0.0 0.00 0.00 0.00 77 1011.0
20260905022516 84 256 0.0 0.0 0.00 0.00 0.00 77 1010.9
20260905022024 84 256 0.0 0.0 0.00 0.00 0.00 77 1010.9
20260905021531 84 256 0.0 0.0 0.00 0.00 0.00 76 1010.9
20260905021052 85 256 0.0 0.0 0.00 0.00 0.00 76 1010.8
20260905020519 85 256 0.0 0.0 0.00 0.00 0.00 75 1010.8
20260905020028 85 256 0.0 0.0 0.00 0.00 0.00 75 1010.8
20260905015018 85 256 0.0 0.0 0.00 0.00 0.00 74 1010.7
20260905014525 85 256 0.0 0.0 0.00 0.00 0.00 74 1010.7
20260905014042 86 256 0.0 0.0 0.00 0.00 0.00 73 1010.7
20260905013527 86 256 0.0 0.0 0.00 0.00 0.00 73 1010.7
20260905013036 86 256 0.0 0.0 0.00 0.00 0.00 72 1010.7
20260905012541 86 256 0.0 0.0 0.00 0.00 0.00 72 1010.3
20260905012013 87 256 0.0 0.0 0.00 0.00 0.00 71 1010.3
20260905011517 87 256 0.0 0.0 0.00 0.00 0.00 71 1010.3
20260905011027 87 256 0.0 0.0 0.00 0.00 0.00 71 1010.3
20260905010515 87 256 0.0 0.0 0.00 0.00 0.00 71 1010.3
20260905010029 88 256 0.0 0.0 0.00 0.00 0.00 70 1010.3
20260905005517 88 256 0.0 0.0 0.00 0.00 0.00 69 1010.3
20260905005019 88 256 0.0 0.0 0.00 0.00 0.00 69 1010.3
20260905004533 88 256 0.0 0.0 0.00 0.00 0.00 69 1010.3
20260905004034 89 256 0.0 0.0 0.00 0.00 0.00 68 1010.3
20260905003549 89 256 0.0 0.0 0.00 0.00 0.00 68 1010.3
20260905003015 89 256 0.0 0.0 0.00 0.00 0.00 67 1010.3
20260905002557 89 256 0.0 0.0 0.00 0.00 0.00 67 1010.3
20260905002043 89 256 0.0 0.0 0.00 0.00 0.00 67 1010.3
20260905001547 90 256 0.0 0.0 0.00 0.00 0.00 67 1010.3
20260905001043 90 256 0.0 0.0 0.00 0.00 0.00 67 1010.4
20260905000523 90 256 0.0 0.0 0.00 0.00 0.00 66 1010.4
20260905000022 90 256 0.0 0.0 0.00 0.00 0.00 66 1010.4
20260904235023 91 256 0.0 0.0 0.00 0.00 0.00 66 1010.4
20260904234522 91 256 0.0 0.0 0.00 0.00 0.00 65 1010.4
20260904234023 91 256 0.0 0.0 0.00 0.00 0.00 65 1010.3
20260904233516 91 256 0.0 0.0 0.00 0.00 0.00 65 1010.3
20260904233028 91 256 0.0 0.0 0.00 0.00 0.00 64 1010.3
20260904232534 91 256 0.0 0.0 0.00 0.00 0.00 64 1010.2
20260904232016 92 256 0.0 0.0 0.00 0.00 0.00 63 1010.2
20260904231517 92 256 0.0 0.0 0.00 0.00 0.00 63 1010.2
20260904231018 92 323 0.0 1.0 0.00 0.00 0.00 63 1009.8
20260904230531 92 323 0.0 1.0 0.00 0.00 0.00 63 1009.8
20260904230018 92 323 0.0 0.0 0.00 0.00 0.00 61 1009.8
20260904225603 93 244 0.0 0.0 0.00 0.00 0.00 62 1009.8
20260904225041 93 244 0.0 0.0 0.00 0.00 0.00 61 1009.8
20260904224552 93 244 0.0 0.0 0.00 0.00 0.00 61 1009.8
20260904224033 93 310 0.0 0.0 0.00 0.00 0.00 60 1009.7
20260904223516 93 310 0.0 0.0 0.00 0.00 0.00 60 1009.7